"Pseudo-MPEC" for ZX956AD

Created 2018 Dec 9 15:18:26 UT using Find_Orb

Click here for an explanation of pseudo-MPECs

 
 Astrometry: 
     ZX956AD  C2018 12 04.26901 04 59 27.48 +16 35 48.2          21.0 GVNEOCPG96
     ZX956AD  C2018 12 04.27416 04 59 26.99 +16 35 43.1          20.9 GVNEOCPG96
     ZX956AD  C2018 12 04.27933 04 59 26.56 +16 35 38.8          20.9 GVNEOCPG96
     ZX956AD  C2018 12 04.28450 04 59 26.11 +16 35 33.8          21.0 GVNEOCPG96
     ZX956AD  C2018 12 04.43664 04 59 12.98 +16 33 10.1          20.9 GVNEOCPI52
     ZX956AD  C2018 12 04.43893 04 59 12.84 +16 33 09.0          20.3 GVNEOCPI52
     ZX956AD  C2018 12 04.44123 04 59 12.61 +16 33 05.5          20.7 GVNEOCPI52
     ZX956AD  C2018 12 04.44352 04 59 12.28 +16 33 05.9          20.2 GVNEOCPI52
     ZX956AD  C2018 12 05.25360 04 58 05.63 +16 20 25.5          20.7 GVNEOCPI52
     ZX956AD  C2018 12 05.26068 04 58 05.03 +16 20 19.0          21.1 GVNEOCPI52
     ZX956AD  C2018 12 05.26775 04 58 04.38 +16 20 12.4          20.7 GVNEOCPI52
     ZX956AD KC2018 12 07%MGAstrometryjl(RiR!vY0Y;kredacted;)y#s92WsIj+wcWjIGH21
     ZX956AD KC2018 12 07^TV=62/s13G%E$REMB+%_-\)0]?b7ykV=dF)s?click:,@s,DK+LH21
     ZX956AD  C2018 12 08.08905 04 54 10.39 +15 36 34.6          19.6 VSNEOCP033
     ZX956AD  C2018 12 08.09263 04 54 10.10 +15 36 31.5          19.6 VSNEOCP033
     ZX956AD  C2018 12 08.09619 04 54 09.84 +15 36 28.8          20.6 VSNEOCP033
     ZX956AD  C2018 12 08.10936 04 54 08.70 +15 36 16.2          20.0 VSNEOCP033
     ZX956AD KC2018 12 08wg5.J/J;.JaAKdJD^+$8k#cPhere)1g4qU-LYvu$F\Cgaak_y0jXL01
     ZX956AD KC2018 12 08fv-RnK-UxfKN;OOwLp^4bDgrhEt$Z+Dx\Q*PVk_TX0]M9for2Kf(L01
     ZX956AD KC2018 12 08APg6.Gv,X]*b9PGHb1_5Jq`6S$jxe2:oSQWexplanationT'c._mL01
     ZX956AD  C2018 12 09.19586 04 52 40.25 +15 19 45.8          21.9 GVNEOCPI52
     ZX956AD  C2018 12 09.19890 04 52 39.95 +15 19 43.5          21.1 GVNEOCPI52
     ZX956AD  C2018 12 09.20057 04 52 39.83 +15 19 42.0          21.7 GVNEOCPI52
     ZX956AD  C2018 12 09.20360 04 52 39.56 +15 19 39.4          20.9 GVNEOCPI52

Station data:
(033) Karl Schwarzschild Observatory, Tautenburg  (N50.980140 E11.711240)
   Germany. 1.3-m Schmidt.
(G96) Mt. Lemmon Survey  (N32.442754 W110.788720)  US/Arizona.  Observers B.
   M. Africano, E. J. Christensen, G. A. Farneth, D. C. Fuls, A. R. Gibbs, A.
   D. Grauer, H. Groeller, J. A. Johnson, R. A. Kowalski, S. M. Larson, G. J.
   Leonard, R. L. Seaman, F. C. Shelly. 1.5-m reflector + 10K CCD.
(H21) Astronomical Research Observatory, Westfield  (N39.483057 W87.968270)
   US/Illinois. 0.76-m f/3.0 astrograph + CCD.
(I52) Steward Observatory, Mt. Lemmon Station  (N32.442547 W110.788920)
   US/Arizona.  Observers B. M. Africano, E. J. Christensen, G. A. Farneth,
   D. C. Fuls, A. R. Gibbs, A. D. Grauer, H. Groeller, J. A. Johnson, R. A.
   Kowalski, S. M. Larson, G. J. Leonard, R. L. Seaman, F. C. Shelly. 1.0-m
   reflector + CCD.
(L01) Višnjan Observatory, Tičan  (N45.290900 E13.749300)  Croatia.
   Observers K. Korlević, E. Pettarin. Measurer E. Pettarin. 1.0-m f/2.9
   reflector + CCD.

Orbital elements:  ZX956AD
   Perihelion 2017 Dec 28.006002 +/- 7.05 TT =  0:08:38 (JD 2458115.506002)
Epoch 2018 Dec  9.0 TT = JDT 2458461.5   Earth MOID: 0.7548   AutoNEOCP
M 131.97417572 +/- 2.2              (J2000 ecliptic)
n   0.38143487 +/- 0.00362          Peri.   52.60399 +/- 2.1
a   1.88302370 +/- 0.0119           Node   244.90441 +/- 0.22
e   0.0786348 +/- 0.00717           Incl.   19.49366 +/- 0.6
P   2.58/943.79d           H 19.2   G  0.15   U  9.0  
q 1.73495249 +/- 0.00367    Q 2.03109491 +/- 0.026
From 24 observations 2018 Dec. 4-9; mean residual 0".50
Residuals in arcseconds: 
181204 G96  .55+  .21-    181205 I52  .38+  .24-    181208 033  .17+  .37+    
181204 G96  .10-  .49-    181205 I52  .53+  .15-    181208 L01  .20-  .12-    
181204 G96  .13+  .05+    181205 I52  .05-  .16-    181208 L01  .11-  .10-    
181204 G96  .08+  .11-    181207 H21  .11-  .39-    181208 L01  .31-  .17-    
181204 I52  .24-  .40-    181207 H21  .42-  .22-    181209 I52  .42+  .39-    
181204 I52  .56+  .67+    181208 033  .01-  .02-    181209 I52  .21-  .05+    
181204 I52  .08+  .65-    181208 033  .14+  .19+    181209 I52  .09+  .06+    
181204 I52  1.9-  1.9+    181208 033  .70+  .78+    181209 I52  .12-  .20+    

Ephemerides (geocentric):
Date (UTC) HH   RA              Dec         delta   r     elong  mag " sig PA
---- -- -- --  -------------   -----------  ------ ------ -----  --- ---- ---
2018 12 09 15  04 52 04.933   +15 13 19.71  1.0085 1.9884 171.9 21.1 .343 144
2018 12 09 16  04 52 01.543   +15 12 41.99  1.0086 1.9884 171.8 21.1 .355 144
2018 12 09 17  04 51 58.153   +15 12 04.29  1.0087 1.9885 171.8 21.1 .366 144
2018 12 09 18  04 51 54.765   +15 11 26.60  1.0088 1.9885 171.8 21.1 .378 144
2018 12 09 19  04 51 51.378   +15 10 48.93  1.0088 1.9885 171.7 21.1 .390 144
2018 12 09 20  04 51 47.993   +15 10 11.28  1.0089 1.9885 171.7 21.1 .402 144
2018 12 09 21  04 51 44.608   +15 09 33.64  1.0090 1.9886 171.6 21.1 .414 145
2018 12 09 22  04 51 41.225   +15 08 56.01  1.0091 1.9886 171.6 21.1 .426 145
2018 12 09 23  04 51 37.843   +15 08 18.40  1.0091 1.9886 171.6 21.1 .439 145
2018 12 10 00  04 51 34.462   +15 07 40.81  1.0092 1.9887 171.5 21.1 .451 145
2018 12 10 01  04 51 31.083   +15 07 03.23  1.0093 1.9887 171.5 21.1 .464 145
2018 12 10 02  04 51 27.705   +15 06 25.67  1.0094 1.9887 171.5 21.1 .476 146
2018 12 10 03  04 51 24.328   +15 05 48.12  1.0095 1.9887 171.4 21.1 .489 146
2018 12 10 04  04 51 20.952   +15 05 10.59  1.0095 1.9888 171.4 21.1 .502 146
2018 12 10 05  04 51 17.578   +15 04 33.08  1.0096 1.9888 171.4 21.1 .515 146
2018 12 10 06  04 51 14.205   +15 03 55.58  1.0097 1.9888 171.3 21.1 .529 146
2018 12 10 07  04 51 10.833   +15 03 18.10  1.0098 1.9888 171.3 21.1 .542 147
2018 12 10 08  04 51 07.463   +15 02 40.63  1.0099 1.9889 171.2 21.1 .555 147
2018 12 10 09  04 51 04.094   +15 02 03.18  1.0100 1.9889 171.2 21.1 .569 147
2018 12 10 10  04 51 00.726   +15 01 25.75  1.0100 1.9889 171.2 21.1 .583 147
2018 12 10 11  04 50 57.360   +15 00 48.33  1.0101 1.9890 171.1 21.1 .597 148
2018 12 10 12  04 50 53.995   +15 00 10.93  1.0102 1.9890 171.1 21.1 .611 148
2018 12 10 13  04 50 50.631   +14 59 33.54  1.0103 1.9890 171.1 21.1 .625 148
2018 12 10 14  04 50 47.269   +14 58 56.18  1.0104 1.9890 171.0 21.1 .639 148
2018 12 10 15  04 50 43.908   +14 58 18.82  1.0105 1.9891 171.0 21.1 .654 149
2018 12 10 16  04 50 40.549   +14 57 41.49  1.0105 1.9891 170.9 21.1 .668 149
2018 12 10 17  04 50 37.191   +14 57 04.17  1.0106 1.9891 170.9 21.1 .683 149
2018 12 10 18  04 50 33.835   +14 56 26.87  1.0107 1.9891 170.9 21.1 .698 150
2018 12 10 19  04 50 30.479   +14 55 49.58  1.0108 1.9892 170.8 21.1 .713 150
2018 12 10 20  04 50 27.126   +14 55 12.32  1.0109 1.9892 170.8 21.1 .728 150
2018 12 10 21  04 50 23.774   +14 54 35.07  1.0110 1.9892 170.7 21.1 .743 150
2018 12 10 22  04 50 20.423   +14 53 57.83  1.0111 1.9893 170.7 21.1 .759 151
2018 12 10 23  04 50 17.073   +14 53 20.61  1.0112 1.9893 170.7 21.1 .774 151
2018 12 11 00  04 50 13.726   +14 52 43.41  1.0113 1.9893 170.6 21.1 .790 151
2018 12 11 01  04 50 10.379   +14 52 06.23  1.0113 1.9893 170.6 21.1 .806 151
2018 12 11 02  04 50 07.034   +14 51 29.07  1.0114 1.9894 170.5 21.1 .822 152
2018 12 11 03  04 50 03.691   +14 50 51.92  1.0115 1.9894 170.5 21.1 .838 152
2018 12 11 04  04 50 00.349   +14 50 14.79  1.0116 1.9894 170.4 21.1 .854 152
2018 12 11 05  04 49 57.009   +14 49 37.67  1.0117 1.9894 170.4 21.1 .871 153
2018 12 11 06  04 49 53.670   +14 49 00.58  1.0118 1.9895 170.4 21.1 .887 153
2018 12 11 07  04 49 50.333   +14 48 23.50  1.0119 1.9895 170.3 21.1 .904 153
2018 12 11 08  04 49 46.997   +14 47 46.44  1.0120 1.9895 170.3 21.1 .921 154
2018 12 11 09  04 49 43.663   +14 47 09.39  1.0121 1.9896 170.2 21.1 .938 154
2018 12 11 10  04 49 40.330   +14 46 32.37  1.0122 1.9896 170.2 21.1 .955 154
2018 12 11 11  04 49 36.999   +14 45 55.36  1.0123 1.9896 170.2 21.1 .972 154
2018 12 11 12  04 49 33.669   +14 45 18.37  1.0124 1.9896 170.1 21.1 .990 155
2018 12 11 13  04 49 30.341   +14 44 41.40  1.0125 1.9897 170.1 21.1 1.01 155
2018 12 11 14  04 49 27.015   +14 44 04.44  1.0126 1.9897 170.0 21.1 1.03 155